Location: Star Camp Observatory
(34.2910°N, 116.3827°W)
Time: 16:20:25
(UTC-08:00)

Envisat - Pass Details

Date: 21 November 2019
Orbit: 764 x 766 km, 98.1° (Epoch: 05 December)

Event Time Altitude Azimuth Distance (km) Brightness Sun altitude
Rises 17:58:43 0° 171° (S) 3,214 6.3 -16.6°
Reaches altitude 10° 18:01:01 10° 174° (S) 2,292 5.5 -17.0°
Maximum altitude 18:06:04 72° 258° (WSW) 804 3.2 -18.0°
Drops below altitude 10° 18:11:08 10° 343° (NNW) 2,305 5.5 -19.1°
Sets 18:13:27 0° 346° (NNW) 3,234 6.3 -19.5°
